Zurück zum Katalog

STARLINK-3172

AktivKommunikationVLEO
NORAD 51139·PAYLOAD·🇺🇸 United States

Gestartet Jan 19, 2022 von Cape Canaveral Space Force Station

Loading…

Nächste Überflüge (nächste 24 Stunden)

TLE

AktuellSource: CelesTrak SupGP

Epoche: Sep 14, 2026, 22:07 UTC

1 51139C 22005AM  26257.92201389 -.00029523  00000+0 -89604-3 0  2573
2 51139  53.1583 155.9910 0001375  85.9294 280.4891 15.33556423    19

Verfolge STARLINK-3172 in Echtzeit mit AllMySat

Download on the App Store